Time,TemperatureF,DewpointF,PressureIn,WindDirection,WindDirectionDegrees,WindSpeedMPH,WindSpeedGustMPH,Humidity,HourlyPrecipIn,Conditions,Clouds,dailyrainin,SoftwareType,DateUTC
2013-03-03 00:01:00,38.0,33.0,30.11,SW,217,6.0,10.0,81,0.00,,,0.00,,2013-03-03 08:01:00,
2013-03-03 00:11:00,38.0,33.0,30.11,SW,217,6.0,10.0,81,0.00,,,0.00,,2013-03-03 08:11:00,
2013-03-03 00:21:00,38.0,33.0,30.11,SW,227,3.0,8.0,81,0.00,,,0.00,,2013-03-03 08:21:00,
2013-03-03 00:31:00,38.0,33.0,30.11,SW,223,3.0,10.0,81,0.00,,,0.00,,2013-03-03 08:31:00,
2013-03-03 00:41:00,38.0,33.0,30.11,SW,223,3.0,10.0,81,0.00,,,0.00,,2013-03-03 08:41:00,
2013-03-03 00:53:00,38.0,32.0,30.10,SW,217,5.0,10.0,80,0.00,,,0.00,,2013-03-03 08:53:00,
2013-03-03 01:01:00,38.0,33.0,30.10,SW,236,6.0,11.0,81,0.00,,,0.00,,2013-03-03 09:01:00,
2013-03-03 01:11:00,38.0,33.0,30.10,SW,236,6.0,11.0,81,0.00,,,0.00,,2013-03-03 09:11:00,
2013-03-03 01:21:00,37.0,32.0,30.09,WSW,240,5.0,11.0,82,0.00,,,0.00,,2013-03-03 09:21:00,
2013-03-03 01:32:00,37.0,32.0,30.09,WSW,250,5.0,10.0,81,0.00,,,0.00,,2013-03-03 09:32:00,
2013-03-03 01:41:00,37.0,32.0,30.09,WSW,250,5.0,10.0,81,0.00,,,0.00,,2013-03-03 09:41:00,
2013-03-03 01:51:00,37.0,32.0,30.09,WSW,242,3.0,11.0,82,0.00,,,0.00,,2013-03-03 09:51:00,
2013-03-03 02:01:00,36.0,31.0,30.09,WSW,243,6.0,12.0,83,0.00,,,0.00,,2013-03-03 10:01:00,
2013-03-03 02:11:00,36.0,31.0,30.09,WSW,243,6.0,12.0,83,0.00,,,0.00,,2013-03-03 10:11:00,
2013-03-03 02:21:00,36.0,31.0,30.10,West,275,6.0,12.0,83,0.00,,,0.00,,2013-03-03 10:21:00,
2013-03-03 02:31:00,36.0,31.0,30.10,SW,217,5.0,13.0,83,0.00,,,0.00,,2013-03-03 10:31:00,
2013-03-03 02:41:00,36.0,31.0,30.10,SW,217,5.0,13.0,83,0.00,,,0.00,,2013-03-03 10:41:00,
2013-03-03 02:51:00,36.0,32.0,30.10,SSW,212,3.0,10.0,85,0.00,,,0.00,,2013-03-03 10:51:00,
2013-03-03 03:01:00,35.0,31.0,30.10,SSW,196,3.0,6.0,86,0.00,,,0.00,,2013-03-03 11:01:00,
2013-03-03 03:11:00,35.0,31.0,30.10,SSW,196,3.0,6.0,86,0.00,,,0.00,,2013-03-03 11:11:00,
2013-03-03 03:21:00,35.0,31.0,30.10,South,190,3.0,7.0,86,0.00,,,0.00,,2013-03-03 11:21:00,
2013-03-03 03:31:00,35.0,31.0,30.09,South,180,3.0,9.0,85,0.00,,,0.00,,2013-03-03 11:31:00,
2013-03-03 03:41:00,35.0,31.0,30.09,South,180,3.0,9.0,85,0.00,,,0.00,,2013-03-03 11:41:00,
2013-03-03 03:52:00,35.0,31.0,30.10,South,187,3.0,7.0,84,0.00,,,0.00,,2013-03-03 11:52:00,
2013-03-03 04:01:00,35.0,31.0,30.09,SSE,166,5.0,8.0,84,0.00,,,0.00,,2013-03-03 12:01:00,
2013-03-03 04:11:00,35.0,31.0,30.09,SSE,166,5.0,8.0,84,0.00,,,0.00,,2013-03-03 12:11:00,
2013-03-03 04:21:00,35.0,31.0,30.09,SSW,211,3.0,7.0,84,0.00,,,0.00,,2013-03-03 12:21:00,
2013-03-03 04:32:00,35.0,30.0,30.09,WSW,255,4.0,9.0,83,0.00,,,0.00,,2013-03-03 12:32:00,
2013-03-03 04:42:00,35.0,30.0,30.09,WSW,255,4.0,9.0,83,0.00,,,0.00,,2013-03-03 12:42:00,
2013-03-03 04:52:00,35.0,30.0,30.09,WNW,302,6.0,12.0,82,0.00,,,0.00,,2013-03-03 12:52:00,
2013-03-03 05:01:00,35.0,30.0,30.10,WSW,238,3.0,7.0,83,0.00,,,0.00,,2013-03-03 13:01:00,
2013-03-03 05:11:00,35.0,30.0,30.10,WSW,238,3.0,7.0,83,0.00,,,0.00,,2013-03-03 13:11:00,
2013-03-03 05:21:00,34.0,29.0,30.09,SSW,197,2.0,6.0,83,0.00,,,0.00,,2013-03-03 13:21:00,
2013-03-03 05:32:00,33.0,28.0,30.10,WSW,248,0.0,4.0,82,0.00,,,0.00,,2013-03-03 13:32:00,
2013-03-03 05:41:00,33.0,28.0,30.10,WSW,248,0.0,4.0,82,0.00,,,0.00,,2013-03-03 13:41:00,
2013-03-03 05:51:00,32.0,29.0,30.11,NNW,334,0.0,7.0,88,0.00,,,0.00,,2013-03-03 13:51:00,
2013-03-03 06:01:00,31.0,28.0,30.12,North,5,6.0,9.0,90,0.00,,,0.00,,2013-03-03 14:01:00,
2013-03-03 06:11:00,31.0,28.0,30.12,North,5,6.0,9.0,90,0.00,,,0.00,,2013-03-03 14:11:00,
2013-03-03 06:21:00,30.0,27.0,30.12,ENE,67,4.0,7.0,89,0.00,,,0.00,,2013-03-03 14:21:00,
2013-03-03 06:31:00,30.0,27.0,30.12,NNE,33,2.0,7.0,89,0.00,,,0.00,,2013-03-03 14:31:00,
2013-03-03 06:42:00,30.0,27.0,30.12,NNE,33,2.0,7.0,89,0.00,,,0.00,,2013-03-03 14:42:00,
2013-03-03 06:52:00,29.0,26.0,30.12,NE,36,1.0,5.0,89,0.00,,,0.00,,2013-03-03 14:52:00,
2013-03-03 07:01:00,29.0,26.0,30.13,NE,34,1.0,3.0,89,0.00,,,0.00,,2013-03-03 15:01:00,
2013-03-03 07:11:00,29.0,26.0,30.13,NE,34,1.0,3.0,89,0.00,,,0.00,,2013-03-03 15:11:00,
2013-03-03 07:22:00,30.0,27.0,30.13,NE,55,3.0,6.0,89,0.00,,,0.00,,2013-03-03 15:22:00,
2013-03-03 07:32:00,30.0,27.0,30.13,ENE,59,6.0,11.0,88,0.00,,,0.00,,2013-03-03 15:32:00,
2013-03-03 07:42:00,30.0,27.0,30.13,ENE,59,6.0,11.0,88,0.00,,,0.00,,2013-03-03 15:42:00,
2013-03-03 07:51:00,30.0,27.0,30.14,NE,51,7.0,11.0,88,0.00,,,0.00,,2013-03-03 15:51:00,
2013-03-03 08:01:00,30.0,27.0,30.14,NE,44,5.0,11.0,87,0.00,,,0.00,,2013-03-03 16:01:00,
2013-03-03 08:11:00,30.0,27.0,30.14,NE,44,5.0,11.0,87,0.00,,,0.00,,2013-03-03 16:11:00,
2013-03-03 08:21:00,30.0,26.0,30.14,ENE,61,7.0,11.0,86,0.00,,,0.00,,2013-03-03 16:21:00,
2013-03-03 08:31:00,30.0,26.0,30.15,NNE,26,4.0,8.0,85,0.00,,,0.00,,2013-03-03 16:31:00,
2013-03-03 08:41:00,30.0,26.0,30.15,NNE,26,4.0,8.0,85,0.00,,,0.00,,2013-03-03 16:41:00,
2013-03-03 08:51:00,30.0,26.0,30.15,NNE,32,4.0,8.0,86,0.00,,,0.00,,2013-03-03 16:51:00,
2013-03-03 09:01:00,31.0,26.0,30.15,NE,53,2.0,9.0,82,0.00,,,0.00,,2013-03-03 17:01:00,
2013-03-03 09:11:00,32.0,27.0,30.15,ENE,59,5.0,9.0,81,0.00,,,0.00,,2013-03-03 17:11:00,
2013-03-03 09:22:00,32.0,27.0,30.15,ENE,59,5.0,9.0,81,0.00,,,0.00,,2013-03-03 17:22:00,
2013-03-03 09:32:00,32.0,26.0,30.15,ENE,65,4.0,10.0,77,0.00,,,0.00,,2013-03-03 17:32:00,
2013-03-03 09:42:00,32.0,26.0,30.15,ENE,65,4.0,10.0,77,0.00,,,0.00,,2013-03-03 17:42:00,
2013-03-03 09:52:00,33.0,26.0,30.15,NNE,19,4.0,10.0,75,0.00,,,0.00,,2013-03-03 17:52:00,
2013-03-03 10:01:00,34.0,27.0,30.15,ENE,67,3.0,9.0,74,0.00,,,0.00,,2013-03-03 18:01:00,
2013-03-03 10:11:00,34.0,27.0,30.15,ENE,67,3.0,9.0,74,0.00,,,0.00,,2013-03-03 18:11:00,
2013-03-03 10:21:00,34.0,26.0,30.15,NE,42,2.0,8.0,72,0.00,,,0.00,,2013-03-03 18:21:00,
2013-03-03 10:31:00,35.0,23.0,30.15,ENE,69,8.0,10.0,62,0.00,,,0.00,,2013-03-03 18:31:00,
2013-03-03 10:41:00,35.0,23.0,30.15,ENE,69,8.0,10.0,62,0.00,,,0.00,,2013-03-03 18:41:00,
2013-03-03 10:52:00,36.0,19.0,30.14,NE,54,7.0,11.0,49,0.00,,,0.00,,2013-03-03 18:52:00,
2013-03-03 11:01:00,36.0,19.0,30.14,NNE,30,5.0,14.0,49,0.00,,,0.00,,2013-03-03 19:01:00,
2013-03-03 11:11:00,36.0,19.0,30.14,NNE,30,5.0,14.0,49,0.00,,,0.00,,2013-03-03 19:11:00,
2013-03-03 11:21:00,38.0,18.0,30.14,NE,55,7.0,10.0,44,0.00,,,0.00,,2013-03-03 19:21:00,
2013-03-03 11:31:00,39.0,17.0,30.14,ENE,61,9.0,13.0,40,0.00,,,0.00,,2013-03-03 19:31:00,
2013-03-03 11:42:00,39.0,17.0,30.14,ENE,61,9.0,13.0,40,0.00,,,0.00,,2013-03-03 19:42:00,
2013-03-03 11:51:00,39.0,14.0,30.14,NE,39,7.0,13.0,35,0.00,,,0.00,,2013-03-03 19:51:00,
2013-03-03 12:01:00,39.0,14.0,30.13,ENE,69,7.0,16.0,35,0.00,,,0.00,,2013-03-03 20:01:00,
2013-03-03 12:11:00,39.0,14.0,30.13,ENE,69,7.0,16.0,35,0.00,,,0.00,,2013-03-03 20:11:00,
2013-03-03 12:21:00,40.0,13.0,30.13,NE,43,6.0,12.0,33,0.00,,,0.00,,2013-03-03 20:21:00,
2013-03-03 12:32:00,40.0,15.0,30.12,ENE,71,11.0,15.0,35,0.00,,,0.00,,2013-03-03 20:32:00,
2013-03-03 12:42:00,40.0,15.0,30.12,ENE,71,11.0,15.0,35,0.00,,,0.00,,2013-03-03 20:42:00,
2013-03-03 12:52:00,41.0,10.0,30.12,ESE,103,6.0,13.0,28,0.00,,,0.00,,2013-03-03 20:52:00,
2013-03-03 13:01:00,41.0,10.0,30.11,ENE,65,4.0,22.0,27,0.00,,,0.00,,2013-03-03 21:01:00,
2013-03-03 13:11:00,41.0,10.0,30.11,ENE,65,4.0,22.0,27,0.00,,,0.00,,2013-03-03 21:11:00,
2013-03-03 13:21:00,42.0,11.0,30.11,NE,39,6.0,13.0,28,0.00,,,0.00,,2013-03-03 21:21:00,
2013-03-03 13:31:00,42.0,10.0,30.11,NE,43,7.0,15.0,27,0.00,,,0.00,,2013-03-03 21:31:00,
2013-03-03 13:41:00,42.0,10.0,30.11,NE,43,7.0,15.0,27,0.00,,,0.00,,2013-03-03 21:41:00,
2013-03-03 13:52:00,42.0,10.0,30.11,NE,42,6.0,12.0,26,0.00,,,0.00,,2013-03-03 21:52:00,
2013-03-03 14:01:00,42.0,10.0,30.11,NE,41,8.0,13.0,27,0.00,,,0.00,,2013-03-03 22:01:00,
2013-03-03 14:11:00,42.0,10.0,30.11,NE,41,8.0,13.0,27,0.00,,,0.00,,2013-03-03 22:11:00,
2013-03-03 14:21:00,43.0,12.0,30.10,ENE,62,6.0,13.0,28,0.00,,,0.00,,2013-03-03 22:21:00,
2013-03-03 14:31:00,44.0,14.0,30.10,NE,41,4.0,11.0,29,0.00,,,0.00,,2013-03-03 22:31:00,
2013-03-03 14:42:00,44.0,14.0,30.10,NE,41,4.0,11.0,29,0.00,,,0.00,,2013-03-03 22:42:00,
2013-03-03 14:52:00,43.0,11.0,30.11,NE,37,3.0,11.0,27,0.00,,,0.00,,2013-03-03 22:52:00,
2013-03-03 15:01:00,43.0,11.0,30.11,NE,43,4.0,11.0,27,0.00,,,0.00,,2013-03-03 23:01:00,
2013-03-03 15:11:00,43.0,11.0,30.11,NE,43,4.0,11.0,27,0.00,,,0.00,,2013-03-03 23:11:00,
2013-03-03 15:21:00,43.0,12.0,30.10,NE,38,9.0,14.0,28,0.00,,,0.00,,2013-03-03 23:21:00,
2013-03-03 15:31:00,44.0,13.0,30.11,NE,46,4.0,10.0,28,0.00,,,0.00,,2013-03-03 23:31:00,
2013-03-03 15:41:00,44.0,13.0,30.11,NE,46,4.0,10.0,28,0.00,,,0.00,,2013-03-03 23:41:00,
2013-03-03 15:52:00,43.0,11.0,30.11,NE,44,5.0,13.0,27,0.00,,,0.00,,2013-03-03 23:52:00,
2013-03-03 16:01:00,42.0,10.0,30.11,ENE,61,8.0,13.0,27,0.00,,,0.00,,2013-03-04 00:01:00,
2013-03-03 16:11:00,42.0,10.0,30.11,ENE,61,8.0,13.0,27,0.00,,,0.00,,2013-03-04 00:11:00,
2013-03-03 16:21:00,43.0,11.0,30.10,ENE,57,5.0,10.0,27,0.00,,,0.00,,2013-03-04 00:21:00,
2013-03-03 16:32:00,42.0,11.0,30.10,NE,56,6.0,10.0,28,0.00,,,0.00,,2013-03-04 00:32:00,
2013-03-03 16:41:00,42.0,11.0,30.10,NE,56,6.0,10.0,28,0.00,,,0.00,,2013-03-04 00:41:00,
2013-03-03 16:51:00,41.0,12.0,30.10,ENE,59,8.0,12.0,30,0.00,,,0.00,,2013-03-04 00:51:00,
2013-03-03 17:01:00,41.0,13.0,30.10,ENE,67,7.0,10.0,31,0.00,,,0.00,,2013-03-04 01:01:00,
2013-03-03 17:11:00,41.0,13.0,30.10,ENE,67,7.0,10.0,31,0.00,,,0.00,,2013-03-04 01:11:00,
2013-03-03 17:21:00,41.0,15.0,30.11,NE,49,4.0,8.0,34,0.00,,,0.00,,2013-03-04 01:21:00,
2013-03-03 17:31:00,41.0,15.0,30.11,NE,49,4.0,8.0,34,0.00,,,0.00,,2013-03-04 01:31:00,
2013-03-03 17:42:00,41.0,15.0,30.11,NE,49,4.0,8.0,34,0.00,,,0.00,,2013-03-04 01:42:00,
2013-03-03 17:51:00,39.0,14.0,30.11,ENE,61,5.0,10.0,35,0.00,,,0.00,,2013-03-04 01:51:00,
2013-03-03 18:01:00,38.0,14.0,30.11,ENE,61,7.0,12.0,37,0.00,,,0.00,,2013-03-04 02:01:00,
2013-03-03 18:11:00,38.0,14.0,30.11,ENE,61,7.0,12.0,37,0.00,,,0.00,,2013-03-04 02:11:00,
2013-03-03 18:22:00,36.0,13.0,30.11,NE,54,5.0,8.0,39,0.00,,,0.00,,2013-03-04 02:22:00,
2013-03-03 18:31:00,35.0,14.0,30.11,NE,55,0.0,4.0,42,0.00,,,0.00,,2013-03-04 02:31:00,
2013-03-03 18:41:00,35.0,14.0,30.11,NE,55,0.0,4.0,42,0.00,,,0.00,,2013-03-04 02:41:00,
2013-03-03 18:52:00,33.0,15.0,30.11,NE,55,1.0,3.0,47,0.00,,,0.00,,2013-03-04 02:52:00,
2013-03-03 19:01:00,33.0,15.0,30.11,NE,40,1.0,4.0,47,0.00,,,0.00,,2013-03-04 03:01:00,
2013-03-03 19:11:00,33.0,15.0,30.11,NE,40,1.0,4.0,47,0.00,,,0.00,,2013-03-04 03:11:00,
2013-03-03 19:21:00,32.0,15.0,30.12,NNE,18,1.0,3.0,49,0.00,,,0.00,,2013-03-04 03:21:00,
2013-03-03 19:31:00,29.0,18.0,30.12,NE,43,0.0,3.0,62,0.00,,,0.00,,2013-03-04 03:31:00,
2013-03-03 19:41:00,28.0,17.0,30.13,NE,35,3.0,5.0,62,0.00,,,0.00,,2013-03-04 03:41:00,
2013-03-03 19:52:00,28.0,17.0,30.13,NE,35,3.0,5.0,62,0.00,,,0.00,,2013-03-04 03:52:00,
2013-03-03 20:01:00,29.0,14.0,30.14,NNE,32,4.0,7.0,54,0.00,,,0.00,,2013-03-04 04:01:00,
2013-03-03 20:11:00,29.0,14.0,30.14,NNE,32,4.0,7.0,54,0.00,,,0.00,,2013-03-04 04:11:00,
2013-03-03 20:22:00,29.0,14.0,30.14,NNE,15,3.0,8.0,53,0.00,,,0.00,,2013-03-04 04:22:00,
2013-03-03 20:31:00,29.0,15.0,30.15,NNE,18,4.0,9.0,55,0.00,,,0.00,,2013-03-04 04:31:00,
2013-03-03 20:41:00,29.0,15.0,30.15,NNE,18,4.0,9.0,55,0.00,,,0.00,,2013-03-04 04:41:00,
2013-03-03 20:51:00,29.0,16.0,30.15,NNE,29,4.0,9.0,58,0.00,,,0.00,,2013-03-04 04:51:00,
2013-03-03 21:01:00,28.0,16.0,30.15,NE,35,3.0,5.0,61,0.00,,,0.00,,2013-03-04 05:01:00,
2013-03-03 21:11:00,28.0,16.0,30.15,NE,35,3.0,5.0,61,0.00,,,0.00,,2013-03-04 05:11:00,
2013-03-03 21:22:00,28.0,16.0,30.15,NE,35,3.0,5.0,61,0.00,,,0.00,,2013-03-04 05:22:00,
2013-03-03 21:31:00,26.0,16.0,30.16,ENE,57,3.0,7.0,64,0.00,,,0.00,,2013-03-04 05:31:00,
2013-03-03 21:42:00,26.0,16.0,30.16,ENE,57,3.0,7.0,64,0.00,,,0.00,,2013-03-04 05:42:00,
2013-03-03 21:52:00,26.0,16.0,30.16,NE,42,1.0,4.0,65,0.00,,,0.00,,2013-03-04 05:52:00,
2013-03-03 22:01:00,26.0,17.0,30.16,NNE,33,3.0,5.0,67,0.00,,,0.00,,2013-03-04 06:01:00,
2013-03-03 22:11:00,26.0,17.0,30.16,NNE,33,3.0,5.0,67,0.00,,,0.00,,2013-03-04 06:11:00,
2013-03-03 22:21:00,26.0,17.0,30.17,NE,43,2.0,6.0,67,0.00,,,0.00,,2013-03-04 06:21:00,
2013-03-03 22:31:00,26.0,17.0,30.17,NE,38,2.0,6.0,69,0.00,,,0.00,,2013-03-04 06:31:00,
2013-03-03 22:42:00,26.0,17.0,30.17,NE,38,2.0,6.0,69,0.00,,,0.00,,2013-03-04 06:42:00,
2013-03-03 22:51:00,26.0,18.0,30.17,NE,43,2.0,5.0,72,0.00,,,0.00,,2013-03-04 06:51:00,
2013-03-03 23:01:00,25.0,18.0,30.17,NE,40,2.0,4.0,73,0.00,,,0.00,,2013-03-04 07:01:00,
2013-03-03 23:11:00,25.0,18.0,30.17,NE,40,2.0,4.0,73,0.00,,,0.00,,2013-03-04 07:11:00,
2013-03-03 23:21:00,25.0,18.0,30.17,NE,38,1.0,5.0,74,0.00,,,0.00,,2013-03-04 07:21:00,
2013-03-03 23:32:00,25.0,19.0,30.18,NE,45,2.0,4.0,76,0.00,,,0.00,,2013-03-04 07:32:00,
2013-03-03 23:41:00,25.0,19.0,30.18,NE,45,2.0,4.0,76,0.00,,,0.00,,2013-03-04 07:41:00,
2013-03-03 23:51:00,25.0,19.0,30.18,NE,44,2.0,4.0,76,0.00,,,0.00,,2013-03-04 07:51:00,